Senai International Airport
WMKJ : now visible

Airfield :











YOU CAN JOIN US ON...

 
LOGIN :

Register | Disclaimer

   EN    FR    IT 

 









Legend :    VFR   Marginal VFR   IFR   Intensive IFR   Very Intensive IFR
Visi :
Ceiling :
>= 8 km
>= 3000ft
5 to 8 km
1000 to 3000 ft
1500m to 5 km
500 to 1000 ft
800 to 1500m
200 to 500 ft
< 800m
< 200 ft
Symbols :   Thunderstorms  Fog  Heavy snow  Heavy precipitations  Wind > 20 kt






- Airport Elevation : 135 ft
- IATA code : JHB


WMKJ - Senai International

CURRENT METAR :
  • 170700Z 11005KT 060V170 9999 SCT018 32/25 Q1007

EXPIRED METARs :
  • 170600Z VRB03KT 9999 FEW017TCU SCT018 33/25 Q1007
  • 170500Z VRB04KT 9999 SCT018 32/25 Q1009

TAF TAF WMKJ
Valid from the 17 at 06:00 until the 18 at 06:00 UTC


170500Z 1706/1806 08005KT 9999 FEW018
TEMPO 1706/1709 4000 TSRA FEW017CB SCT018
WMFC FIR / Asia



MET'MAP, your aeronautical weather chart ! - Copyright ORBIFLY December 2007 - Disclaimer

ORBIFLY MET'MAP TEAM :

Programming & Development : Alexandra Zaïnal
Concept & original design : Baudouin d'Aumeries
Assistance for programming : Marc-Olivier Méhu
Technical & hardware support : Manuel Goepfert

Contact : metmap@orbifly.com




SOURCES & CREDITS :

   NOAA       Earth
Advisory